CW1675 Weather Reports


Display with metric or nautical units.
time (UTC)temp
F
wind
direction
speed
MPH
gust
MPH
rain 1hr
in
rain 24hr
in
rain mn
in
humidity
%
barometer
mb
20260507063838 47 203 1.0 5.0 0.00 0.21 0.00 98 1015.3
20260507062842 47 200 1.0 3.0 0.00 0.21 0.00 98 1015.3
20260507061338 47 219 1.0 3.0 0.00 0.21 0.00 99 1015.2
20260507060338 47 217 0.0 3.0 0.00 0.21 0.00 99 1015.1
20260507055358 47 150 0.0 1.0 0.00 0.21 0.00 99 1015.0
20260507054838 47 150 0.0 0.0 0.00 0.21 0.00 99 1015.0
20260507053838 47 150 0.0 0.0 0.00 0.21 0.00 99 1014.9
20260507053338 47 150 0.0 1.0 0.00 0.21 0.00 99 1014.9
20260507052839 47 150 0.0 1.0 0.00 0.21 0.00 99 1014.9
20260507052338 46 150 0.0 2.0 0.00 0.21 0.00 99 1014.8
20260507050338 46 143 0.0 1.0 0.00 0.22 0.00 99 1014.5
20260507045338 46 131 0.0 0.0 0.00 0.22 0.00 99 1014.4
20260507044338 46 131 0.0 0.0 0.00 0.22 0.00 99 1014.4
20260507043337 46 153 0.0 0.0 0.00 0.23 0.00 99 1014.3
20260507042841 46 153 0.0 3.0 0.00 0.23 0.00 99 1014.3
20260507042338 46 111 0.0 0.0 0.00 0.23 0.00 98 1014.2
20260507041338 45 326 0.0 0.0 0.00 0.23 0.00 98 1014.2
20260507035841 45 326 0.0 2.0 0.00 0.25 0.00 98 1014.0
20260507033837 45 326 0.0 0.0 0.00 0.26 0.00 98 1013.9
20260507032337 45 326 0.0 0.0 0.00 0.26 0.00 98 1013.8
20260507031838 45 326 0.0 0.0 0.00 0.26 0.00 98 1013.8
20260507031338 45 326 0.0 0.0 0.00 0.27 0.00 98 1013.8
20260507030838 45 326 0.0 0.0 0.00 0.27 0.00 98 1013.8
20260507025840 45 326 0.0 0.0 0.00 0.27 0.00 98 1013.8
20260507024838 45 326 0.0 0.0 0.00 0.27 0.00 97 1013.7
20260507023838 45 326 0.0 0.0 0.00 0.28 0.00 97 1013.6
20260507023337 45 326 0.0 0.0 0.00 0.28 0.00 97 1013.6
20260507022838 46 326 0.0 0.0 0.00 0.29 0.00 97 1013.6
20260507021838 46 326 0.0 0.0 0.00 0.29 0.00 97 1013.6
20260507021338 46 326 0.0 0.0 0.00 0.29 0.00 97 1013.6
20260507015840 46 326 0.0 0.0 0.00 0.29 0.00 97 1013.5
20260507014838 46 326 0.0 0.0 0.00 0.31 0.00 97 1013.4
20260507014337 46 326 0.0 0.0 0.00 0.31 0.00 97 1013.4
20260507012842 46 326 0.0 0.0 0.00 0.32 0.00 97 1013.4
20260507012338 46 326 0.0 0.0 0.00 0.32 0.00 97 1013.3
20260507004838 46 326 0.0 0.0 0.00 0.35 0.00 97 1013.2
20260507004338 46 326 0.0 0.0 0.00 0.35 0.00 97 1013.2
20260507003838 46 326 1.0 2.0 0.00 0.35 0.00 97 1013.1
20260507002841 46 326 1.0 2.0 0.00 0.35 0.00 97 1013.1
20260507002338 46 326 0.0 3.0 0.00 0.36 0.00 97 1013.0
20260506235840 46 39 1.0 5.0 0.00 0.36 0.00 97 1013.1
20260506235338 46 19 1.0 5.0 0.00 0.36 0.00 97 1013.1
20260506234337 46 49 2.0 5.0 0.00 0.37 0.00 97 1013.1
20260506233839 46 20 2.0 5.0 0.00 0.37 0.00 97 1012.8
20260506233338 46 20 2.0 6.0 0.00 0.37 0.00 97 1012.8
20260506232338 47 33 3.0 6.0 0.00 0.37 0.00 97 1012.8
20260506231838 47 15 2.0 6.0 0.00 0.37 0.00 97 1012.8
20260506223838 47 339 2.0 3.0 0.00 0.38 0.00 98 1012.5
20260506221838 47 327 2.0 5.0 0.00 0.40 0.00 98 1012.3
20260506221337 47 297 2.0 5.0 0.00 0.40 0.00 98 1012.3
20260506220837 47 23 2.0 5.0 0.00 0.40 0.00 98 1012.1
20260506220338 47 14 2.0 5.0 0.00 0.40 0.00 98 1012.1
20260506215338 47 341 2.0 7.0 0.00 0.41 0.41 97 1012.0
20260506214838 47 39 2.0 6.0 0.00 0.41 0.41 97 1012.0
20260506214337 47 323 2.0 6.0 0.00 0.41 0.41 97 1012.0
20260506213838 47 14 2.0 6.0 0.00 0.42 0.41 97 1011.9
20260506213337 47 359 2.0 5.0 0.00 0.42 0.41 97 1011.9
20260506211838 47 0 2.0 5.0 0.00 0.44 0.41 97 1011.8
20260506211337 47 336 1.0 6.0 0.00 0.44 0.41 97 1011.8
20260506210837 47 336 1.0 5.0 0.00 0.45 0.41 97 1011.8
20260506210337 47 324 1.0 5.0 0.00 0.46 0.41 97 1011.8
20260506205841 47 328 1.0 5.0 0.00 0.46 0.41 97 1011.8
20260506205338 47 316 1.0 3.0 0.00 0.47 0.41 97 1011.8
20260506204337 47 1 2.0 2.0 0.00 0.48 0.41 97 1011.8
20260506202337 47 10 1.0 5.0 0.00 0.49 0.41 97 1011.7
20260506201338 47 350 1.0 5.0 0.00 0.50 0.41 97 1011.7
20260506200837 47 343 1.0 2.0 0.00 0.51 0.41 97 1011.6
20260506200337 47 341 1.0 2.0 0.00 0.51 0.41 97 1011.6
20260506195337 47 331 2.0 5.0 0.00 0.52 0.41 97 1011.5
20260506194337 47 349 2.0 5.0 0.00 0.53 0.41 97 1011.5
20260506193837 47 35 2.0 6.0 0.00 0.54 0.41 97 1011.4
20260506193337 47 337 2.0 5.0 0.00 0.54 0.41 97 1011.4
20260506192840 47 337 1.0 5.0 0.00 0.55 0.41 97 1011.4
20260506192338 47 341 0.0 5.0 0.00 0.55 0.41 97 1011.2
20260506191838 47 322 0.0 3.0 0.00 0.56 0.41 97 1011.2
20260506191338 47 39 0.0 2.0 0.00 0.56 0.41 97 1011.2
20260506190837 47 39 0.0 2.0 0.00 0.57 0.41 97 1011.1
20260506190337 47 39 0.0 2.0 0.00 0.57 0.41 96 1011.1
20260506185839 47 39 0.0 1.0 0.00 0.58 0.41 96 1011.1
20260506184338 47 39 1.0 0.0 0.00 0.60 0.41 96 1011.1
20260506183837 47 39 1.0 3.0 0.00 0.60 0.41 96 1011.0
20260506182841 47 36 0.0 3.0 0.00 0.61 0.41 96 1011.0
20260506182338 47 36 0.0 3.0 0.00 0.61 0.41 96 1010.9
20260506181338 48 352 2.0 3.0 0.00 0.62 0.41 96 1010.9
20260506180838 48 270 1.0 5.0 0.00 0.63 0.41 96 1010.7
20260506180338 48 313 0.0 3.0 0.00 0.63 0.41 96 1010.7
20260506175841 47 313 0.0 2.0 0.00 0.64 0.41 96 1010.7
20260506174837 47 325 0.0 1.0 0.00 0.65 0.41 96 1010.6
20260506173351 47 37 1.0 2.0 0.00 0.67 0.41 96 1010.3
20260506170837 48 336 2.0 8.0 0.00 0.69 0.41 95 1010.2
20260506165840 48 347 2.0 6.0 0.00 0.71 0.41 95 1010.2
20260506165337 48 340 1.0 6.0 0.00 0.71 0.41 95 1010.1
20260506164338 48 36 2.0 3.0 0.00 0.72 0.41 95 1010.1
20260506162841 48 342 1.0 2.0 0.00 0.73 0.41 96 1010.1
20260506161338 48 47 2.0 2.0 0.00 0.73 0.41 96 1010.1
20260506160837 48 41 1.0 6.0 0.00 0.73 0.41 95 1010.0
20260506160337 48 23 1.0 5.0 0.00 0.73 0.41 96 1010.0
20260506155841 48 144 1.0 5.0 0.00 0.73 0.41 96 1010.0
20260506155337 48 30 0.0 5.0 0.00 0.73 0.41 96 1010.0
20260506153837 48 41 3.0 3.0 0.00 0.73 0.41 96 1009.9
20260506153337 47 344 3.0 5.0 0.00 0.73 0.41 96 1009.9
20260506152842 47 346 3.0 7.0 0.00 0.73 0.41 96 1009.9
20260506151843 48 343 3.0 10.0 0.00 0.73 0.41 96 1009.8
20260506150337 48 27 2.0 10.0 0.02 0.73 0.41 96 1009.8
20260506145838 48 5 2.0 7.0 0.02 0.73 0.41 96 1009.8
20260506145338 48 6 2.0 5.0 0.02 0.73 0.41 96 1009.8
20260506144837 48 347 2.0 3.0 0.02 0.73 0.41 96 1009.8
20260506143837 48 354 2.0 8.0 0.02 0.73 0.41 96 1009.7
20260506143337 48 333 2.0 5.0 0.02 0.73 0.41 96 1009.7
20260506142839 48 315 2.0 6.0 0.02 0.73 0.41 96 1009.7
20260506140838 48 32 2.0 7.0 0.00 0.71 0.39 96 1009.7
20260506135337 48 324 2.0 10.0 0.01 0.71 0.39 96 1009.7
20260506134338 48 324 3.0 8.0 0.01 0.71 0.39 96 1009.7
20260506132841 48 348 3.0 9.0 0.02 0.71 0.39 96 1009.7
20260506132339 48 45 3.0 8.0 0.02 0.71 0.39 96 1009.5
20260506131838 48 27 3.0 9.0 0.02 0.71 0.39 96 1009.5
20260506131337 48 342 3.0 9.0 0.02 0.71 0.39 96 1009.5
20260506125337 49 357 5.0 9.0 0.01 0.70 0.38 96 1009.1
20260506124337 50 337 2.0 8.0 0.01 0.70 0.38 96 1009.1
20260506123837 50 4 2.0 5.0 0.01 0.70 0.38 96 1009.0
20260506123338 50 326 2.0 10.0 0.00 0.69 0.37 97 1009.0
20260506122841 49 342 2.0 6.0 0.00 0.69 0.37 97 1009.0
20260506121837 49 347 2.0 7.0 0.00 0.69 0.37 96 1008.9
20260506120338 49 320 3.0 8.0 0.00 0.69 0.37 96 1008.8
20260506114838 49 9 3.0 5.0 0.00 0.70 0.37 97 1008.7
20260506113838 49 12 3.0 5.0 0.00 0.70 0.37 97 1008.6
20260506112840 49 340 4.0 7.0 0.00 0.70 0.37 97 1008.6
20260506111837 49 323 5.0 7.0 0.00 0.70 0.37 97 1008.6
20260506110338 49 358 3.0 15.0 0.01 0.70 0.37 97 1008.5
20260506105840 49 27 3.0 7.0 0.01 0.70 0.37 97 1008.5
20260506105338 49 1 2.0 7.0 0.01 0.70 0.37 97 1008.5
20260506103838 49 313 3.0 10.0 0.01 0.70 0.37 98 1008.5
20260506103338 49 2 3.0 12.0 0.02 0.70 0.37 98 1008.5
20260506102841 49 25 3.0 8.0 0.02 0.70 0.37 98 1008.5
20260506101838 49 347 4.0 9.0 0.03 0.70 0.37 98 1008.4
20260506100838 49 306 3.0 7.0 0.02 0.70 0.37 98 1008.3
20260506095337 49 14 5.0 8.0 0.05 0.70 0.37 98 1008.2
20260506094837 49 332 5.0 6.0 0.05 0.70 0.37 98 1008.2
20260506093837 49 23 3.0 8.0 0.06 0.70 0.37 98 1008.1
20260506092841 49 339 3.0 9.0 0.06 0.69 0.35 98 1008.1
20260506092337 49 2 3.0 9.0 0.07 0.69 0.35 98 1008.0
20260506085839 49 339 3.0 8.0 0.08 0.67 0.33 99 1007.9
20260506085337 49 346 2.0 7.0 0.06 0.65 0.31 98 1007.8
20260506084837 49 20 2.0 6.0 0.07 0.65 0.31 99 1007.8
20260506084338 49 351 2.0 6.0 0.06 0.63 0.30 99 1007.8
20260506083837 49 331 2.0 6.0 0.07 0.63 0.30 99 1007.7
20260506082337 49 244 2.0 5.0 0.07 0.61 0.28 99 1007.6
20260506081337 49 8 2.0 5.0 0.06 0.61 0.28 99 1007.6
20260506080837 49 353 2.0 5.0 0.06 0.61 0.28 99 1007.6
20260506080336 49 334 2.0 6.0 0.06 0.59 0.26 99 1007.6
20260506073338 48 19 2.0 3.0 0.03 0.56 0.23 99 1007.3
20260506072337 48 344 2.0 7.0 0.01 0.54 0.21 99 1007.3
20260506071337 48 315 2.0 5.0 0.01 0.54 0.21 99 1007.3
20260506070838 48 23 2.0 6.0 0.01 0.54 0.21 99 1007.1
20260506070337 48 329 2.0 7.0 0.00 0.54 0.20 99 1007.1